User: anonymous
Location: Caribou
(46.8667°N, 68.0167°W)
Time: 19:16:56
(UTC-04:00)
Language:

SL-08 RB Rocket - Orbit

View from above orbital plane
View from above orbital plane
View from above satellite
View from above satellite

Ground track
Ground track

The orbit data is extracted from the following two-line orbital elements,

1 26387U 00033D   14211.25221449  .00000273  00000-0  56848-4 0  5656
2 26387 098.1028 278.4816 0028129 078.6502 324.0479 14.67322567753403
Epoch (UTC): 30 July 2014 06:03:11
Eccentricity: 0.0028129
inclination: 98.1028°
perigee height: 650 km
apogee height: 689 km
right ascension of ascending node: 278.4816°
argument of perigee: 78.6502°
revolutions per day: 14.67322567
mean anomaly at epoch: 324.0479°
orbit number at epoch: 75340

The dashed part of the orbit path shows where the satellite is in the earth's shadow,  

DLR